Weather History for KGKY - February, 2014

Change the Weather History Date:

Saturday, February 8, 2014

  Actual Average (KRBD) Record (KRBD)
Temperature  
Mean Temperature 42 °F -  
Max Temperature 55 °F 56 °F 75 °F (2015)
Min Temperature 30 °F 38 °F 30 °F (2002)
Degree Days  
Heating Degree Days 22    
Moisture  
Dew Point 34 °F    
Average Humidity 80    
Maximum Humidity 96    
Minimum Humidity 49    
Precipitation  
Precipitation 0.00 in - - ()
Sea Level Pressure  
Sea Level Pressure 30.13 in    
Wind  
Wind Speed 8 mph (SSE)    
Max Wind Speed 14 mph    
Max Gust Speed 18 mph    
Visibility 7 miles    
Events      
Averages and records for this station are not official NWS values.
T = Trace of Precipitation, MM = Missing Value Source: NWS Daily Summary

Daily Weather History Graph

Daily Weather History Graph

Search for Another Location

Airport or City:

Trip Planner

Search our weather history database for the weather conditions in past years. The results will help you decide how hot, cold, wet, or windy it might be!

Date:

Astronomy

Feb. 08, 2014 Rise Set
Actual Time 7:17 AM CST 6:07 PM CST
Civil Twilight 6:52 AM CST 6:33 PM CST
Nautical Twilight 6:23 AM CST 7:02 PM CST
Astronomical Twilight 5:54 AM CST 7:31 PM CST
Moon 1:07 PM CST (2/8) 2:26 AM CST (2/8)
Length of Visible Light 11h 41m
Length of Day
10h 50m
Waxing Gibbous, 69% of the Moon is Illuminated
Feb 8
Waxing Gibbous
Feb 14
Full
Feb 22
Last Quarter
Mar 1
New
Mar 8
First Quarter

Hourly Weather History & Observations

Time (CST) Temp. Windchill Dew Point Humidity Pressure Visibility Wind Dir Wind Speed Gust Speed Precip Events Conditions
12:53 AM 30.9 °F 24.3 °F 27.0 °F 85% 30.22 in 10.0 mi SSE 6.9 mph - N/A   Overcast
1:53 AM 30.9 °F 25.2 °F 27.0 °F 85% 30.22 in 8.0 mi SSE 5.8 mph - N/A   Overcast
2:53 AM 33.1 °F 26.1 °F 28.0 °F 82% 30.19 in 10.0 mi South 8.1 mph - N/A   Overcast
3:16 AM 33.8 °F 27.0 °F 28.4 °F 81% 30.17 in 10.0 mi South 8.1 mph - N/A   Overcast
3:53 AM 32.0 °F 27.5 °F 30.0 °F 92% 30.17 in 8.0 mi SSE 4.6 mph - N/A   Overcast
4:53 AM 33.1 °F 26.9 °F 30.0 °F 89% 30.17 in 5.0 mi South 6.9 mph - N/A   Overcast
5:26 AM 33.8 °F 27.7 °F 30.2 °F 87% 30.16 in 4.0 mi SSE 6.9 mph - N/A   Overcast
5:53 AM 33.1 °F 26.1 °F 30.9 °F 92% 30.17 in 4.0 mi SSE 8.1 mph - N/A   Overcast
6:53 AM 33.1 °F 26.1 °F 30.9 °F 92% 30.17 in 5.0 mi South 8.1 mph - N/A   Overcast
7:53 AM 33.1 °F 24.9 °F 32.0 °F 96% 30.18 in 2.0 mi SSE 10.4 mph - N/A   Overcast
8:18 AM 33.8 °F 26.4 °F 32.0 °F 93% 30.19 in 1.5 mi South 9.2 mph - N/A   Overcast
8:53 AM 34.0 °F 27.2 °F 32.0 °F 92% 30.19 in 1.5 mi SSE 8.1 mph - N/A   Overcast
9:17 AM 33.8 °F 25.3 °F 32.0 °F 93% 30.19 in 2.0 mi South 11.5 mph - N/A   Overcast
9:27 AM 35.6 °F 28.0 °F 32.0 °F 87% 30.19 in 4.0 mi South 10.4 mph - N/A   Overcast
9:53 AM 36.0 °F 28.0 °F 33.1 °F 89% 30.19 in 5.0 mi SSE 11.5 mph - N/A   Overcast
10:13 AM 35.6 °F 28.6 °F 33.8 °F 93% 30.18 in 5.0 mi South 9.2 mph - N/A   Overcast
10:53 AM 37.0 °F 29.3 °F 33.1 °F 86% 30.17 in 5.0 mi SSE 11.5 mph - N/A   Overcast
11:26 AM 39.2 °F 34.2 °F 33.8 °F 81% 30.16 in 7.0 mi South 6.9 mph - N/A   Overcast
11:53 AM 41.0 °F 35.2 °F 34.0 °F 76% 30.15 in 7.0 mi South 9.2 mph - N/A   Overcast
12:23 PM 44.6 °F 39.2 °F 33.8 °F 66% 30.12 in 9.0 mi SSE 10.4 mph - N/A   Scattered Clouds
12:53 PM 48.0 °F - 35.1 °F 61% 30.10 in 10.0 mi SSE 10.4 mph - N/A   Clear
1:53 PM 52.0 °F - 36.0 °F 54% 30.04 in 10.0 mi SE 13.8 mph 18.4 mph N/A   Clear
2:53 PM 55.0 °F - 36.0 °F 49% 30.02 in 10.0 mi SSE 12.7 mph - N/A   Clear
3:53 PM 55.9 °F - 37.0 °F 49% 30.00 in 10.0 mi ESE 10.4 mph - N/A   Clear
4:53 PM 55.9 °F - 37.9 °F 51% 29.99 in 10.0 mi SE 12.7 mph - N/A   Clear
5:53 PM 52.0 °F - 37.9 °F 59% 30.00 in 10.0 mi SE 12.7 mph - N/A   Clear
6:53 PM 48.0 °F - 39.0 °F 71% 30.04 in 10.0 mi SE 8.1 mph - N/A   Clear
7:53 PM 45.0 °F 41.8 °F 37.9 °F 76% 30.04 in 10.0 mi SE 5.8 mph - N/A   Clear
8:53 PM 44.1 °F 39.5 °F 37.9 °F 79% 30.06 in 9.0 mi SE 8.1 mph - N/A   Clear
9:53 PM 43.0 °F 39.5 °F 37.9 °F 82% 30.06 in 9.0 mi SE 5.8 mph - N/A   Clear
10:53 PM 41.0 °F 37.1 °F 37.9 °F 89% 30.06 in 9.0 mi SE 5.8 mph - N/A   Clear
11:53 PM 39.9 °F 37.8 °F 37.9 °F 93% 30.05 in 8.0 mi SE 3.5 mph - N/A   Clear